Погода в Судзуке

Япония     34°53′30″N   136°33′53″E
темп.,
°C
ветер,
м/с
пор.,
м/с
влажн.,
%
обл.,
%
осадки,
мм/ч
давл.,
гПа
погр.,
м
25 февраля, чт
чт2500:00+1зсз35591 0.0 1026292
03:00+1зсз23610 0.0 1026210
06:000сз236379 0.0 1026155
09:00+5сз124242 0.0 1026432
12:00+11юв11270 0.0 1024898
15:00+10юв212819 0.0 1022730
18:00+8ююз124098 0.0 1024129
21:00+7зсз123299 0.0 102339
26 февраля, пт
пт2600:00+7ссз1228100 0.0 102560
03:00+6ссз2333100 0.0 1023109
06:00+6ссз2450100 0.1 1023119
09:00+7ссз4658100 0.1 1023478
12:00+11ссз234599 0.0 1022920
15:00+11сз354499 0.0 1020963
18:00+8сз3557100 0.0 1021332
21:00+7ссз3559100 0.0 1021289
27 февраля, сб
сб2700:00+6сз2357100 0.0 1021124
03:00+4сз3457100 0.0 1022226
06:00+3зсз3559100 0.0 1025276
09:00+4сз3454100 0.0 1027452
12:00+8зсз2337100 0.0 1026729
15:00+9зсз343973 0.0 1025634
18:00+5зсз34550 0.0 1028229
21:00+3зсз23629 0.0 1032108
28 февраля, вс
вс2800:00+3ссз116091 0.0 103347
03:00+4всв115975 0.0 103331
06:00+4св126369 0.0 1034105
09:00+6в355871 0.0 1035763
12:00+8юв466291 0.0 10331059
15:00+9юв466194 0.1 10311173
18:00+8юв366859 0.0 1033782
21:00+8в366963 0.1 1034488
1 марта, пн
пн100:00+8в367191 0.0 1032508
03:00+8в257296 0.0 1031555
06:00+7ссв2465100 0.0 1030192
09:00+8ссв236698 0.1 1030149
12:00+10всв1166100 0.0 1027244
15:00+12юв1361100 0.0 1024452
18:00+11юв1377100 0.1 1024215
21:00+11юв3888100 0.2 1023524